Regional Weather Roundup
Issued by NWS

Home | Current Version | Previous Version | Graphics & Text | Print | Product List | Glossary On
Versions: 1 2 3 4 5 6 7 8 9 10 11 12 13 14 15 16 17 18 19 20 21 22 23 24 25 26 27 28 29 30 31 32 33 34 35 36 37 38 39 40 41 42 43 44 45 46 47 48 49 50
000
ASUS45 KBOU 250807
RWRCO

WEATHER ROUNDUP FOR COLORADO
NATIONAL WEATHER SERVICE DENVER/BOULDER CO
200 AM MDT FRI JUL 25 2014

NOTE: "FAIR" INDICATES FEW OR NO CLOUDS BELOW 12000 FEET WITH NO
SIGNIFICANT WEATHER AND/OR OBSTRUCTIONS TO VISIBILITY.

COZ001>005-013-030-031-250900-
...NORTHWEST COLORADO...

CITY           SKY/WX    TMP DP  RH WIND       PRES   REMARKS
CRAIG            N/A     56  51  84 CALM      30.20F
HAYDEN         PTCLDY    64  45  48 E7        30.22F
MEEKER         PTCLDY    59  52  77 CALM      30.22F
MOUNT WERNER   NOT AVBL
STEAMBOAT SPGS PTCLDY    56  49  78 CALM      30.26S
WALDEN         CLEAR     50  43  76 E7        30.34F
$$

COZ006>008-011-250900-
...WEST CENTRAL VALLEYS...

CITY           SKY/WX    TMP DP  RH WIND       PRES   REMARKS
GRAND JUNCTION MOCLDY    75  51  43 SE14      30.11R
MONTROSE       CLOUDY    69  53  56 CALM      30.22F
EAGLE          MOCLDY    59  55  88 SW5       30.32F
RIFLE          PTCLDY    69  50  50 VRB5      30.18S
DELTA          CLOUDY    70  51  50 NE6       30.18F
NUCLA          CLOUDY    64  52  63 S6        30.27F
$$

COZ017>023-064>068-250900-
...SOUTHWEST COLORADO...

CITY           SKY/WX    TMP DP  RH WIND       PRES   REMARKS
DURANGO        CLOUDY    67  51  56 N5        30.29F
CORTEZ         MOCLDY    72  50  45 NW7       30.21F
PAGOSA SPRINGS CLOUDY    66  47  50 NW5       30.38F
TELLURIDE      NOT AVBL
WOLF CREEK PAS NOT AVBL
$$

COZ009-010-012-014-032>034-037-058>063-250900-
...CENTRAL COLORADO...

CITY           SKY/WX    TMP DP  RH WIND       PRES   REMARKS
ASPEN          MOCLDY    54  48  80 SE3       30.36F
BUENA VISTA    CLOUDY    61  46  57 W8        30.36F
COPPER MTN     MOCLDY    52  37  58 S8        30.68F
BERTHOUD PASS  FAIR      43  32  65 NW20G26   30.68F
COTTONWOOD PAS CLOUDY    61  41  48 NW8       30.50F
GUNNISON       CLOUDY    57  48  72 N3        30.42F
KREMMLING      PTCLDY    61  43  51 SW12G20   30.33S
LEADVILLE      MOCLDY    51  42  71 N8        30.52F
MONARCH PASS   CLOUDY    46  41  81 W25       30.77S
SALIDA         CLOUDY   N/A N/A N/A W7        30.41F
SUNLIGHT       MOCLDY    54  45  71 SE3       30.59F
WILKERSON PASS MOCLDY    54  37  54 W14G22    30.61F
$$

COZ069>075-250900-
...SAN LUIS VALLEY/SANGRE DE CRISTO MOUNTAINS...

CITY           SKY/WX    TMP DP  RH WIND       PRES   REMARKS
ALAMOSA        MOCLDY    62  51  67 W3        30.37S
LA VETA PASS   PTCLDY    55  41  58 SW12G21   30.51F
SAGUACHE       CLOUDY    61  50  67 NW10      30.40R
$$

COZ035-036-038>040-250900-
...NORTHERN COLORADO FRONT RANGE...

CITY           SKY/WX    TMP DP  RH WIND       PRES   REMARKS
DENVER INTL AP MOCLDY    70  51  51 SW10      30.06F
DMNS CITY PARK   N/A     70  53  54 S1        30.06S
AURORA         MOCLDY    69  52  53 S7        30.09F
FRONT RANGE AP NOT AVBL
ERIE MUNI ARPT MOCLDY    79  42  26 W10       30.03F
BOULDER MUN AP MOCLDY    81  43  26 W6        30.05F
CENTENNIAL     MOCLDY    72  49  44 SW9       30.11S
BROOMFIELD     MOCLDY    77  43  29 W12       30.08F
FORT COLLINS   PTCLDY    68  54  60 W6        30.04R
LONGMONT       PTCLDY    69  54  59 CALM      30.04F
$$

COZ041-046-047-076>085-087-088-250900-
...PIKES PEAK/PALMER DIVIDE AND SOUTHERN FOOTHILLS...

CITY           SKY/WX    TMP DP  RH WIND       PRES   REMARKS
COLO. SPRINGS  CLOUDY    71  52  50 CALM      30.15F
A. F. ACADEMY  MOCLDY    74  46  36 NW12G24   30.17F
ELLICOTT       CLOUDY    68  52  56 N6        30.14S
FALCON         CLOUDY    70  47  44 W14       30.20S
FORT CARSON    MOCLDY    70  53  56 SW3       30.12F
LIMON          MOCLDY    61  56  83 SW3       30.07F
MONUMENT HILL  MOCLDY    63  48  59 SW8       30.20F
TRINIDAD       CLEAR     70  48  45 W8        30.16F
$$

COZ042>045-048>051-090-091-250900-
...NORTHEAST COLORADO...

CITY           SKY/WX    TMP DP  RH WIND       PRES   REMARKS
GREELEY ARPT   MOCLDY    63  54  72 CALM      30.01F
AKRON          PTCLDY    70  54  56 W12       29.98F
BURLINGTON     CLOUDY    74  54  49 S9        29.95F
WRAY             N/A     70  56  61 SW8       29.89S
STERLING       PTCLDY    68  63  83 S5        29.93F
HOLYOKE        CLEAR     73  59  60 W8        29.89F
FORT MORGAN    PTCLDY    69  52  54 W7        29.98F
$$

COZ086-089-092>099-250900-
...SOUTHEAST COLORADO...

CITY           SKY/WX    TMP DP  RH WIND       PRES   REMARKS
PUEBLO         PTCLDY    73  52  47 CALM      30.04F
LA JUNTA       PTCLDY    76  53  44 W12       29.99F
LAMAR          MOCLDY    81  50  33 SW13      29.90S
SPRINGFIELD      N/A     76  50  40 SW15      30.04F
$$



USA.gov is the U.S. government's official web portal to all federal, state and local government web resources and services.